Data No.,UTC Date,UTC Time,Latitude,Longitude,Course(deg),Temp(degC),Sal(psu)
21,2014/1/29,8:28:00,34-01.1200N,137-01.3800E,185,14.769,34.602
22,2014/1/29,8:29:00,34-00.9100N,137-01.3600E,185,14.768,34.6012
23,2014/1/29,8:30:00,34-00.7100N,137-01.3300E,185,14.769,34.601
24,2014/1/29,8:31:00,34-00.5000N,137-01.3100E,185,14.771,34.6017
25,2014/1/29,8:32:00,34-00.2800N,137-01.2800E,185,14.768,34.6018
26,2014/1/29,8:33:00,34-00.0800N,137-01.2600E,185,14.771,34.6015
27,2014/1/29,8:34:00,33-59.8700N,137-01.2300E,185,14.766,34.601
28,2014/1/29,8:35:00,33-59.6600N,137-01.2000E,186,14.767,34.6016
29,2014/1/29,8:36:00,33-59.4500N,137-01.1700E,186,14.768,34.6014
30,2014/1/29,8:37:00,33-59.2400N,137-01.1500E,186,14.769,34.6005
31,2014/1/29,8:38:00,33-59.0400N,137-01.1200E,184,14.768,34.6004
32,2014/1/29,8:39:00,33-58.8300N,137-01.1100E,183,14.766,34.6014
33,2014/1/29,8:40:00,33-58.6200N,137-01.0900E,184,14.766,34.6022
34,2014/1/29,8:41:00,33-58.4000N,137-01.0700E,184,14.767,34.6007
35,2014/1/29,8:42:00,33-58.2000N,137-01.0500E,184,14.766,34.6009
36,2014/1/29,8:43:00,33-57.9900N,137-01.0300E,184,14.766,34.6008
37,2014/1/29,8:44:00,33-57.7800N,137-01.0100E,184,14.767,34.6017
38,2014/1/29,8:45:00,33-57.5700N,137-00.9900E,184,14.767,34.6009
39,2014/1/29,8:46:00,33-57.3500N,137-00.9700E,184,14.765,34.6
40,2014/1/29,8:47:00,33-57.1400N,137-00.9600E,184,14.765,34.6012
41,2014/1/29,8:48:00,33-56.9300N,137-00.9300E,184,14.767,34.6011
42,2014/1/29,8:49:00,33-56.7000N,137-00.9100E,184,14.766,34.6005
43,2014/1/29,8:50:00,33-56.4900N,137-00.9000E,183,14.765,34.6009
44,2014/1/29,8:51:00,33-56.2700N,137-00.8800E,184,14.767,34.6011
45,2014/1/29,8:52:00,33-56.0600N,137-00.8600E,183,14.766,34.6021
46,2014/1/29,8:53:00,33-55.8400N,137-00.8400E,183,14.765,34.6021
47,2014/1/29,8:54:00,33-55.6200N,137-00.8200E,183,14.763,34.6018
48,2014/1/29,8:55:00,33-55.4100N,137-00.8000E,184,14.767,34.602
49,2014/1/29,8:56:00,33-55.2000N,137-00.7800E,184,14.766,34.6029
50,2014/1/29,8:57:00,33-54.9800N,137-00.7600E,184,14.757,34.6029
51,2014/1/29,8:58:00,33-54.7600N,137-00.7400E,184,14.751,34.603
52,2014/1/29,8:59:00,33-54.5500N,137-00.7200E,184,14.747,34.6032
53,2014/1/29,9:00:00,33-54.3300N,137-00.7000E,184,14.741,34.6038
54,2014/1/29,9:01:00,33-54.1200N,137-00.6800E,184,14.737,34.6025
55,2014/1/29,9:02:00,33-53.9000N,137-00.6600E,184,14.734,34.6038
56,2014/1/29,9:03:00,33-53.6800N,137-00.6400E,184,14.737,34.6029
57,2014/1/29,9:04:00,33-53.4600N,137-00.6200E,184,14.736,34.6027
58,2014/1/29,9:05:00,33-53.2400N,137-00.6000E,184,14.732,34.6041
59,2014/1/29,9:06:00,33-53.0300N,137-00.5800E,184,14.73,34.6033
60,2014/1/29,9:07:00,33-52.8100N,137-00.5500E,185,14.721,34.6025
61,2014/1/29,9:08:00,33-52.5900N,137-00.5300E,184,14.719,34.6037
62,2014/1/29,9:09:00,33-52.3800N,137-00.5100E,184,14.723,34.603
63,2014/1/29,9:10:00,33-52.1400N,137-00.4800E,185,14.716,34.601
64,2014/1/29,9:11:00,33-51.9300N,137-00.4500E,185,14.719,34.6022
65,2014/1/29,9:12:00,33-51.7100N,137-00.4300E,185,14.737,34.6021
66,2014/1/29,9:13:00,33-51.5000N,137-00.4100E,185,14.748,34.6023
67,2014/1/29,9:14:00,33-51.2900N,137-00.3800E,185,14.75,34.6025
68,2014/1/29,9:15:00,33-51.0700N,137-00.3600E,186,14.747,34.6038
69,2014/1/29,9:16:00,33-50.8600N,137-00.3300E,186,14.751,34.6026
70,2014/1/29,9:17:00,33-50.6500N,137-00.3100E,184,14.758,34.6029
71,2014/1/29,9:18:00,33-50.4400N,137-00.2900E,184,14.763,34.6009
72,2014/1/29,9:19:00,33-50.2300N,137-00.2800E,184,14.77,34.6032
73,2014/1/29,9:20:00,33-50.0200N,137-00.2600E,184,14.775,34.6012
74,2014/1/29,9:21:00,33-49.8000N,137-00.2400E,184,14.78,34.6019
75,2014/1/29,9:22:00,33-49.5900N,137-00.2200E,184,14.776,34.6028
76,2014/1/29,9:23:00,33-49.3900N,137-00.2000E,184,14.781,34.6043
77,2014/1/29,9:24:00,33-49.1700N,137-00.1800E,188,14.781,34.6026
78,2014/1/29,9:25:00,33-48.9700N,137-00.1800E,169,14.781,34.6027
79,2014/1/29,9:26:00,33-48.7900N,137-00.2600E,158,14.775,34.6036
80,2014/1/29,9:27:00,33-48.6200N,137-00.3500E,155,14.775,34.6038
81,2014/1/29,9:28:00,33-48.4400N,137-00.4500E,155,14.774,34.6041
82,2014/1/29,9:29:00,33-48.2600N,137-00.5500E,155,14.777,34.6028
83,2014/1/29,9:30:00,33-48.0800N,137-00.6500E,154,14.776,34.6044
84,2014/1/29,9:31:00,33-47.8900N,137-00.7500E,154,14.778,34.6039
85,2014/1/29,9:32:00,33-47.6900N,137-00.8700E,154,14.772,34.6047
86,2014/1/29,9:33:00,33-47.5000N,137-00.9800E,154,14.773,34.6035
87,2014/1/29,9:34:00,33-47.3100N,137-01.0800E,155,14.773,34.6051
88,2014/1/29,9:35:00,33-47.1200N,137-01.1800E,155,14.769,34.6046
89,2014/1/29,9:36:00,33-46.9300N,137-01.2900E,155,14.769,34.6052
90,2014/1/29,9:37:00,33-46.7400N,137-01.3900E,155,14.762,34.6058
91,2014/1/29,9:38:00,33-46.5500N,137-01.4900E,158,14.752,34.6058
92,2014/1/29,9:39:00,33-46.3500N,137-01.5800E,163,14.744,34.6069
93,2014/1/29,9:40:00,33-46.1400N,137-01.6200E,172,14.739,34.6057
94,2014/1/29,9:41:00,33-45.9300N,137-01.6300E,179,14.735,34.6053
95,2014/1/29,9:42:00,33-45.7200N,137-01.6200E,185,14.732,34.6055
96,2014/1/29,9:43:00,33-45.5000N,137-01.5800E,190,14.73,34.6064
97,2014/1/29,9:44:00,33-45.3000N,137-01.5400E,191,14.725,34.6057
98,2014/1/29,9:45:00,33-45.0900N,137-01.4800E,191,14.728,34.6065
99,2014/1/29,9:46:00,33-44.8800N,137-01.4300E,191,14.728,34.6069
100,2014/1/29,9:47:00,33-44.6600N,137-01.3700E,191,14.727,34.6062
101,2014/1/29,9:48:00,33-44.4500N,137-01.3200E,191,14.73,34.6062
102,2014/1/29,9:49:00,33-44.2400N,137-01.2700E,191,14.729,34.6064
103,2014/1/29,9:50:00,33-44.0300N,137-01.2100E,191,14.716,34.6069
104,2014/1/29,9:51:00,33-43.8100N,137-01.1600E,192,14.706,34.6061
105,2014/1/29,9:52:00,33-43.6000N,137-01.1000E,192,14.7,34.6035
106,2014/1/29,9:53:00,33-43.3900N,137-01.0500E,192,14.698,34.6028
107,2014/1/29,9:54:00,33-43.1500N,137-00.9800E,192,14.698,34.6016
108,2014/1/29,9:55:00,33-42.9400N,137-00.9300E,192,14.691,34.6018
109,2014/1/29,9:56:00,33-42.7300N,137-00.8700E,192,14.685,34.6009
110,2014/1/29,9:57:00,33-42.5200N,137-00.8200E,192,14.68,34.6015
111,2014/1/29,9:58:00,33-42.3000N,137-00.7600E,193,14.67,34.602
112,2014/1/29,9:59:00,33-42.0900N,137-00.7000E,193,14.655,34.6015
113,2014/1/29,10:00:00,33-41.8700N,137-00.6300E,193,14.643,34.6022
114,2014/1/29,10:01:00,33-41.6700N,137-00.5700E,193,14.622,34.6013
115,2014/1/29,10:02:00,33-41.4500N,137-00.5100E,194,14.611,34.6008
116,2014/1/29,10:03:00,33-41.2400N,137-00.4500E,194,14.607,34.6012
117,2014/1/29,10:04:00,33-41.0300N,137-00.3900E,194,14.6,34.6012
118,2014/1/29,10:05:00,33-40.8200N,137-00.3200E,194,14.587,34.6018
119,2014/1/29,10:06:00,33-40.6100N,137-00.2600E,194,14.574,34.6015
120,2014/1/29,10:07:00,33-40.3900N,137-00.1900E,195,14.565,34.5995
121,2014/1/29,10:08:00,33-40.1800N,137-00.1200E,194,14.55,34.5999
122,2014/1/29,10:09:00,33-39.9700N,137-00.0600E,192,14.514,34.5985
123,2014/1/29,10:10:00,33-39.7600N,137-00.0100E,191,14.507,34.5986
124,2014/1/29,10:11:00,33-39.5500N,136-59.9600E,192,14.51,34.5965
125,2014/1/29,10:12:00,33-39.3300N,136-59.9000E,192,14.51,34.5952
126,2014/1/29,10:13:00,33-39.1200N,136-59.8500E,192,14.509,34.5928
127,2014/1/29,10:14:00,33-38.9100N,136-59.7900E,192,14.512,34.5935
128,2014/1/29,10:15:00,33-38.7000N,136-59.7400E,191,14.509,34.5919
129,2014/1/29,10:16:00,33-38.4800N,136-59.6800E,190,14.506,34.5934
130,2014/1/29,10:17:00,33-38.2600N,136-59.6400E,189,14.503,34.5931
131,2014/1/29,10:18:00,33-38.0400N,136-59.6000E,189,14.497,34.5927
132,2014/1/29,10:19:00,33-37.8300N,136-59.5600E,189,14.5,34.5943
133,2014/1/29,10:20:00,33-37.6200N,136-59.5200E,189,14.497,34.5928
134,2014/1/29,10:21:00,33-37.4000N,136-59.4800E,188,14.487,34.5928
135,2014/1/29,10:22:00,33-37.1900N,136-59.4300E,189,14.477,34.593
136,2014/1/29,10:23:00,33-36.9800N,136-59.3900E,189,14.471,34.5935
137,2014/1/29,10:24:00,33-36.7600N,136-59.3500E,189,14.456,34.593
138,2014/1/29,10:25:00,33-36.5500N,136-59.3100E,189,14.43,34.5937
139,2014/1/29,10:26:00,33-36.3400N,136-59.2700E,189,14.392,34.5938
140,2014/1/29,10:27:00,33-36.1300N,136-59.2300E,188,14.334,34.5908
141,2014/1/29,10:28:00,33-35.9100N,136-59.1900E,187,14.264,34.592
142,2014/1/29,10:29:00,33-35.7000N,136-59.1600E,187,14.241,34.5889
143,2014/1/29,10:30:00,33-35.4900N,136-59.1300E,185,14.246,34.5852
144,2014/1/29,10:31:00,33-35.2800N,136-59.1100E,184,14.239,34.584
145,2014/1/29,10:32:00,33-35.0700N,136-59.0900E,185,14.244,34.5845
146,2014/1/29,10:33:00,33-34.8600N,136-59.0700E,184,14.249,34.5832
147,2014/1/29,10:34:00,33-34.6400N,136-59.0400E,184,14.248,34.5838
148,2014/1/29,10:35:00,33-34.4300N,136-59.0300E,183,14.249,34.5814
149,2014/1/29,10:36:00,33-34.2100N,136-59.0100E,183,14.244,34.5844
150,2014/1/29,10:37:00,33-34.0000N,136-58.9900E,183,14.246,34.583
151,2014/1/29,10:38:00,33-33.7900N,136-58.9700E,183,14.242,34.5844
152,2014/1/29,10:39:00,33-33.5800N,136-58.9500E,183,14.246,34.5822
153,2014/1/29,10:40:00,33-33.3300N,136-58.9300E,183,14.242,34.5829
154,2014/1/29,10:41:00,33-33.1300N,136-58.9100E,184,14.238,34.5827
155,2014/1/29,10:42:00,33-32.9200N,136-58.8900E,183,14.234,34.5819
156,2014/1/29,10:43:00,33-32.7100N,136-58.8800E,183,14.233,34.5825
157,2014/1/29,10:44:00,33-32.4900N,136-58.8600E,183,14.226,34.5809
158,2014/1/29,10:45:00,33-32.2900N,136-58.8400E,182,14.219,34.5818
159,2014/1/29,10:46:00,33-32.0700N,136-58.8300E,181,14.228,34.5805
160,2014/1/29,10:47:00,33-31.8600N,136-58.8200E,182,14.251,34.5791
161,2014/1/29,10:48:00,33-31.6500N,136-58.8100E,182,14.251,34.5765
162,2014/1/29,10:49:00,33-31.4400N,136-58.8000E,181,14.245,34.5756
163,2014/1/29,10:50:00,33-31.2200N,136-58.8000E,181,14.25,34.5735
164,2014/1/29,10:51:00,33-31.0100N,136-58.7900E,181,14.255,34.5751
165,2014/1/29,10:52:00,33-30.7900N,136-58.7800E,181,14.253,34.5764
166,2014/1/29,10:53:00,33-30.5800N,136-58.7800E,180,14.282,34.5779
167,2014/1/29,10:54:00,33-30.3600N,136-58.7800E,180,14.342,34.5819
168,2014/1/29,10:55:00,33-30.1400N,136-58.7800E,180,14.399,34.5868
169,2014/1/29,10:56:00,33-29.9200N,136-58.7700E,181,14.412,34.5905
170,2014/1/29,10:57:00,33-29.7000N,136-58.7700E,180,14.454,34.5913
171,2014/1/29,10:58:00,33-29.4800N,136-58.7600E,180,14.486,34.5903
172,2014/1/29,10:59:00,33-29.2600N,136-58.7600E,181,14.503,34.5928
173,2014/1/29,11:00:00,33-29.0400N,136-58.7400E,186,14.511,34.5939
174,2014/1/29,11:01:00,33-28.8200N,136-58.7000E,188,14.523,34.5933
175,2014/1/29,11:02:00,33-28.6000N,136-58.6600E,188,14.52,34.5938
176,2014/1/29,11:03:00,33-28.3800N,136-58.6200E,188,14.53,34.5931
177,2014/1/29,11:04:00,33-28.1500N,136-58.5700E,188,14.533,34.5932
178,2014/1/29,11:05:00,33-27.9400N,136-58.5300E,189,14.535,34.5948
179,2014/1/29,11:06:00,33-27.7200N,136-58.4900E,189,14.541,34.5945
180,2014/1/29,11:07:00,33-27.4900N,136-58.4500E,189,14.539,34.5941
181,2014/1/29,11:08:00,33-27.2800N,136-58.4100E,189,14.54,34.5926
182,2014/1/29,11:09:00,33-27.0600N,136-58.3600E,190,14.541,34.5924
183,2014/1/29,11:10:00,33-26.8400N,136-58.3100E,193,14.54,34.5907
184,2014/1/29,11:11:00,33-26.6300N,136-58.2400E,193,14.544,34.5913
185,2014/1/29,11:12:00,33-26.4200N,136-58.1800E,194,14.552,34.5914
186,2014/1/29,11:13:00,33-26.2100N,136-58.1100E,194,14.556,34.592
187,2014/1/29,11:14:00,33-26.0000N,136-58.0500E,194,14.561,34.5934
188,2014/1/29,11:15:00,33-25.7800N,136-57.9800E,194,14.564,34.5935
189,2014/1/29,11:16:00,33-25.5700N,136-57.9300E,192,14.82,34.5933
190,2014/1/29,11:17:00,33-25.3600N,136-57.8700E,192,15.075,34.5935
191,2014/1/29,11:18:00,33-25.1500N,136-57.8200E,192,15.293,34.6
192,2014/1/29,11:19:00,33-24.9400N,136-57.7600E,192,15.421,34.6041
193,2014/1/29,11:20:00,33-24.7200N,136-57.7000E,193,15.479,34.609
194,2014/1/29,11:21:00,33-24.5100N,136-57.6400E,193,15.552,34.6097
195,2014/1/29,11:22:00,33-24.3000N,136-57.5800E,193,15.677,34.6115
196,2014/1/29,11:23:00,33-24.0900N,136-57.5200E,193,15.878,34.6148
197,2014/1/29,11:24:00,33-23.8700N,136-57.4700E,192,15.968,34.6161
198,2014/1/29,11:25:00,33-23.6700N,136-57.4100E,192,16.15,34.6204
199,2014/1/29,11:26:00,33-23.4400N,136-57.3500E,193,16.275,34.6243
200,2014/1/29,11:27:00,33-23.2200N,136-57.3000E,192,16.429,34.6279
201,2014/1/29,11:28:00,33-23.0100N,136-57.2400E,191,16.566,34.6315
202,2014/1/29,11:29:00,33-22.8100N,136-57.1900E,192,16.663,34.6357
203,2014/1/29,11:30:00,33-22.6000N,136-57.1400E,192,16.729,34.6402
204,2014/1/29,11:31:00,33-22.3900N,136-57.0800E,192,16.733,34.6447
205,2014/1/29,11:32:00,33-22.1800N,136-57.0300E,191,16.718,34.6464
206,2014/1/29,11:33:00,33-21.9800N,136-56.9700E,192,16.722,34.6476
207,2014/1/29,11:34:00,33-21.7800N,136-56.9200E,192,16.711,34.6499
208,2014/1/29,11:35:00,33-21.5700N,136-56.8600E,192,16.662,34.6519
209,2014/1/29,11:36:00,33-21.3600N,136-56.8100E,192,16.685,34.6501
210,2014/1/29,11:37:00,33-21.1600N,136-56.7500E,192,16.667,34.6505
211,2014/1/29,11:38:00,33-20.9500N,136-56.7000E,192,16.589,34.6524
212,2014/1/29,11:39:00,33-20.7400N,136-56.6400E,192,16.545,34.6527
213,2014/1/29,11:40:00,33-20.5400N,136-56.5900E,192,16.532,34.6493
214,2014/1/29,11:41:00,33-20.3300N,136-56.5300E,192,16.475,34.647
215,2014/1/29,11:42:00,33-20.1300N,136-56.4800E,192,16.324,34.6468
216,2014/1/29,11:43:00,33-19.9200N,136-56.4200E,192,16.226,34.6418
217,2014/1/29,11:44:00,33-19.7200N,136-56.3700E,192,16.182,34.6328
218,2014/1/29,11:45:00,33-19.5100N,136-56.3100E,193,16.161,34.6286
219,2014/1/29,11:46:00,33-19.3100N,136-56.2500E,193,16.133,34.6288
220,2014/1/29,11:47:00,33-19.1000N,136-56.1900E,193,16.105,34.6283
221,2014/1/29,11:48:00,33-18.8900N,136-56.1300E,193,16.053,34.625
222,2014/1/29,11:49:00,33-18.6700N,136-56.0700E,192,16.069,34.6223
223,2014/1/29,11:50:00,33-18.4600N,136-56.0200E,192,16.083,34.6212
224,2014/1/29,11:51:00,33-18.2500N,136-55.9600E,192,16.09,34.6196
225,2014/1/29,11:52:00,33-18.0500N,136-55.9100E,192,16.129,34.6202
226,2014/1/29,11:53:00,33-17.8500N,136-55.8500E,194,16.089,34.6206
227,2014/1/29,11:54:00,33-17.6400N,136-55.8000E,191,16.116,34.6196
228,2014/1/29,11:55:00,33-17.4300N,136-55.7600E,187,16.12,34.6193
229,2014/1/29,11:56:00,33-17.2200N,136-55.7600E,179,16.104,34.6226
230,2014/1/29,11:57:00,33-17.0100N,136-55.7700E,174,16.075,34.6236
231,2014/1/29,11:58:00,33-16.8100N,136-55.8100E,172,16.061,34.6232
232,2014/1/29,11:59:00,33-16.6000N,136-55.8400E,172,16.088,34.6242
233,2014/1/29,12:00:00,33-16.3900N,136-55.8700E,173,16.079,34.6254
234,2014/1/29,12:01:00,33-16.1900N,136-55.9000E,173,16.057,34.6256
235,2014/1/29,12:02:00,33-15.9800N,136-55.9300E,172,16.043,34.6251
236,2014/1/29,12:03:00,33-15.7700N,136-55.9700E,172,16.014,34.6249
237,2014/1/29,12:04:00,33-15.5600N,136-56.0000E,172,15.95,34.6241
238,2014/1/29,12:05:00,33-15.3500N,136-56.0300E,172,15.878,34.6226
239,2014/1/29,12:06:00,33-15.1400N,136-56.0600E,172,15.813,34.6199
240,2014/1/29,12:07:00,33-14.9300N,136-56.1000E,172,15.678,34.6176
241,2014/1/29,12:08:00,33-14.7200N,136-56.1300E,172,15.588,34.6139
242,2014/1/29,12:09:00,33-14.5100N,136-56.1700E,171,15.573,34.6069
243,2014/1/29,12:10:00,33-14.2800N,136-56.2200E,168,15.648,34.604
244,2014/1/29,12:11:00,33-14.0600N,136-56.2700E,169,15.881,34.5941
245,2014/1/29,12:12:00,33-13.8500N,136-56.3100E,169,16.154,34.5815
246,2014/1/29,12:13:00,33-13.6300N,136-56.3600E,168,16.384,34.5811
247,2014/1/29,12:14:00,33-13.4200N,136-56.4100E,169,16.496,34.5854
248,2014/1/29,12:15:00,33-13.2000N,136-56.4600E,168,16.646,34.5925
249,2014/1/29,12:16:00,33-12.9800N,136-56.5100E,168,16.796,34.597
250,2014/1/29,12:17:00,33-12.7600N,136-56.5700E,168,16.898,34.6043
251,2014/1/29,12:18:00,33-12.5400N,136-56.6200E,168,16.942,34.6102
252,2014/1/29,12:19:00,33-12.3300N,136-56.6800E,167,17.049,34.6157
253,2014/1/29,12:20:00,33-12.1200N,136-56.7300E,168,17.171,34.6177
254,2014/1/29,12:21:00,33-11.8900N,136-56.7800E,169,17.201,34.6249
255,2014/1/29,12:22:00,33-11.6700N,136-56.8400E,168,17.267,34.6303
256,2014/1/29,12:23:00,33-11.4600N,136-56.8900E,168,17.27,34.6332
257,2014/1/29,12:24:00,33-11.2400N,136-56.9400E,168,17.284,34.6345
258,2014/1/29,12:25:00,33-11.0200N,136-57.0000E,168,17.313,34.6319
259,2014/1/29,12:26:00,33-10.8000N,136-57.0500E,168,17.382,34.633
260,2014/1/29,12:27:00,33-10.5800N,136-57.1100E,168,17.457,34.6352
261,2014/1/29,12:28:00,33-10.3600N,136-57.1600E,167,17.504,34.6394
262,2014/1/29,12:29:00,33-10.1400N,136-57.2300E,167,17.534,34.6435
263,2014/1/29,12:30:00,33-09.9300N,136-57.2700E,172,17.543,34.6464
264,2014/1/29,12:31:00,33-09.7100N,136-57.2900E,176,17.563,34.6464
265,2014/1/29,12:32:00,33-09.4900N,136-57.3000E,176,17.596,34.6471
266,2014/1/29,12:33:00,33-09.2500N,136-57.3200E,177,17.62,34.6475
267,2014/1/29,12:34:00,33-09.0300N,136-57.3300E,177,17.623,34.6483
268,2014/1/29,12:35:00,33-08.8200N,136-57.3500E,176,17.629,34.6497
269,2014/1/29,12:36:00,33-08.6000N,136-57.3600E,177,17.627,34.6482
270,2014/1/29,12:37:00,33-08.3800N,136-57.3600E,182,17.629,34.6476
271,2014/1/29,12:38:00,33-08.1700N,136-57.3500E,183,17.631,34.6462
272,2014/1/29,12:39:00,33-07.9500N,136-57.3300E,184,17.618,34.6461
273,2014/1/29,12:40:00,33-07.7400N,136-57.3100E,184,17.609,34.6458
274,2014/1/29,12:41:00,33-07.5300N,136-57.2900E,184,17.614,34.6466
275,2014/1/29,12:42:00,33-07.2900N,136-57.2700E,183,17.559,34.6493
276,2014/1/29,12:43:00,33-07.1000N,136-57.2600E,181,17.49,34.65
277,2014/1/29,12:44:00,33-06.8800N,136-57.2500E,181,17.458,34.6505
278,2014/1/29,12:45:00,33-06.6700N,136-57.2400E,185,17.451,34.6468
279,2014/1/29,12:46:00,33-06.4500N,136-57.2100E,185,17.44,34.6444
280,2014/1/29,12:47:00,33-06.2400N,136-57.1800E,186,17.431,34.6427
281,2014/1/29,12:48:00,33-06.0200N,136-57.1600E,186,17.434,34.6402
282,2014/1/29,12:49:00,33-05.8100N,136-57.1300E,185,17.465,34.64
283,2014/1/29,12:50:00,33-05.6000N,136-57.1100E,184,17.554,34.6427
284,2014/1/29,12:51:00,33-05.3800N,136-57.0900E,184,17.618,34.6496
285,2014/1/29,12:52:00,33-05.1600N,136-57.0700E,184,17.696,34.6505
286,2014/1/29,12:53:00,33-04.9500N,136-57.0500E,183,17.798,34.6508
287,2014/1/29,12:54:00,33-04.7200N,136-57.0300E,184,17.857,34.6508
288,2014/1/29,12:55:00,33-04.5000N,136-57.0100E,183,17.899,34.6501
289,2014/1/29,12:56:00,33-04.2700N,136-56.9900E,184,17.933,34.6496
290,2014/1/29,12:57:00,33-04.0500N,136-56.9700E,184,18.017,34.6491
291,2014/1/29,12:58:00,33-03.8400N,136-56.9500E,184,18.096,34.6505
292,2014/1/29,12:59:00,33-03.6100N,136-56.9300E,183,18.19,34.6503
293,2014/1/29,13:00:00,33-03.4000N,136-56.9100E,184,18.289,34.6516
294,2014/1/29,13:01:00,33-03.1800N,136-56.9000E,184,18.351,34.6502
295,2014/1/29,13:02:00,33-02.9600N,136-56.8800E,183,18.461,34.6489
296,2014/1/29,13:03:00,33-02.7400N,136-56.8700E,183,18.537,34.6485
297,2014/1/29,13:04:00,33-02.5300N,136-56.8400E,184,18.567,34.6453
298,2014/1/29,13:05:00,33-02.3200N,136-56.8200E,185,18.594,34.6431
299,2014/1/29,13:06:00,33-02.1000N,136-56.8000E,185,18.616,34.6427
300,2014/1/29,13:07:00,33-01.8800N,136-56.7700E,185,18.636,34.642
301,2014/1/29,13:08:00,33-01.6700N,136-56.7400E,186,18.657,34.6417
302,2014/1/29,13:09:00,33-01.4600N,136-56.7100E,186,18.663,34.6402
303,2014/1/29,13:10:00,33-01.2500N,136-56.6900E,186,18.667,34.6407
304,2014/1/29,13:11:00,33-01.0300N,136-56.6600E,186,18.675,34.6396
305,2014/1/29,13:12:00,33-00.8200N,136-56.6300E,186,18.679,34.6397
306,2014/1/29,13:13:00,33-00.6100N,136-56.6000E,185,18.696,34.6399
307,2014/1/29,13:14:00,33-00.4000N,136-56.5700E,186,18.709,34.6391
308,2014/1/29,13:15:00,33-00.1800N,136-56.5400E,186,18.713,34.6386
309,2014/1/29,13:16:00,32-59.9700N,136-56.5200E,186,18.717,34.6385
310,2014/1/29,13:17:00,32-59.7600N,136-56.4900E,187,18.717,34.6372
311,2014/1/29,13:18:00,32-59.5500N,136-56.4500E,187,18.719,34.6364
312,2014/1/29,13:19:00,32-59.3400N,136-56.4200E,186,18.718,34.6364
313,2014/1/29,13:20:00,32-59.1100N,136-56.3900E,187,18.719,34.6366
314,2014/1/29,13:21:00,32-58.9000N,136-56.3600E,187,18.71,34.6371
315,2014/1/29,13:22:00,32-58.6900N,136-56.3200E,187,18.698,34.6369
316,2014/1/29,13:23:00,32-58.4800N,136-56.2900E,186,18.692,34.6359
317,2014/1/29,13:24:00,32-58.2600N,136-56.2700E,185,18.685,34.636
318,2014/1/29,13:25:00,32-58.0500N,136-56.2400E,185,18.69,34.6369
319,2014/1/29,13:26:00,32-57.8300N,136-56.2200E,185,18.739,34.6377
320,2014/1/29,13:27:00,32-57.6200N,136-56.2000E,184,18.869,34.6412
321,2014/1/29,13:28:00,32-57.4000N,136-56.1800E,184,18.978,34.6549
322,2014/1/29,13:29:00,32-57.1900N,136-56.1600E,184,19.106,34.6698
323,2014/1/29,13:30:00,32-56.9700N,136-56.1500E,184,19.194,34.6809
324,2014/1/29,13:31:00,32-56.7500N,136-56.1300E,184,19.262,34.69
325,2014/1/29,13:32:00,32-56.5300N,136-56.1100E,184,19.343,34.6951
326,2014/1/29,13:33:00,32-56.3000N,136-56.0900E,184,19.457,34.7013
327,2014/1/29,13:34:00,32-56.0900N,136-56.0700E,184,19.506,34.7081
328,2014/1/29,13:35:00,32-55.8500N,136-56.0500E,182,19.612,34.7134
329,2014/1/29,13:36:00,32-55.6400N,136-56.0400E,182,19.757,34.7158
330,2014/1/29,13:37:00,32-55.4200N,136-56.0300E,182,19.828,34.7245
331,2014/1/29,13:38:00,32-55.2000N,136-56.0200E,182,19.882,34.7294
332,2014/1/29,13:39:00,32-54.9800N,136-56.0100E,182,19.914,34.7321
333,2014/1/29,13:40:00,32-54.7600N,136-55.9900E,182,19.946,34.7339
334,2014/1/29,13:41:00,32-54.5400N,136-55.9800E,182,19.968,34.7371
335,2014/1/29,13:42:00,32-54.3200N,136-55.9700E,182,20.005,34.7391
336,2014/1/29,13:43:00,32-54.0800N,136-55.9600E,182,20.049,34.7398
337,2014/1/29,13:44:00,32-53.8600N,136-55.9500E,182,20.064,34.7411
338,2014/1/29,13:45:00,32-53.6400N,136-55.9400E,183,20.099,34.7396
339,2014/1/29,13:46:00,32-53.4200N,136-55.9200E,183,20.133,34.7408
340,2014/1/29,13:47:00,32-53.2000N,136-55.9100E,182,20.163,34.7406
341,2014/1/29,13:48:00,32-52.9800N,136-55.9000E,183,20.189,34.7407
342,2014/1/29,13:49:00,32-52.7600N,136-55.8800E,183,20.203,34.7398
343,2014/1/29,13:50:00,32-52.5500N,136-55.8700E,183,20.217,34.7388
344,2014/1/29,13:51:00,32-52.3200N,136-55.8600E,183,20.236,34.7379
345,2014/1/29,13:52:00,32-52.1100N,136-55.8500E,182,20.26,34.7391
346,2014/1/29,13:53:00,32-51.8900N,136-55.8300E,182,20.289,34.7385
347,2014/1/29,13:54:00,32-51.6700N,136-55.8200E,182,20.313,34.738
348,2014/1/29,13:55:00,32-51.4500N,136-55.8100E,182,20.335,34.7371
349,2014/1/29,13:56:00,32-51.2300N,136-55.8000E,183,20.354,34.7374
350,2014/1/29,13:57:00,32-51.0100N,136-55.7800E,183,20.364,34.7364
351,2014/1/29,13:58:00,32-50.8000N,136-55.7700E,184,20.374,34.7369
352,2014/1/29,13:59:00,32-50.5800N,136-55.7600E,178,20.383,34.736
353,2014/1/29,14:00:00,32-50.3700N,136-55.7900E,169,20.393,34.737
354,2014/1/29,14:01:00,32-50.1400N,136-55.8500E,166,20.404,34.7366
355,2014/1/29,14:02:00,32-49.9300N,136-55.9100E,168,20.417,34.737
356,2014/1/29,14:03:00,32-49.7100N,136-55.9900E,162,20.415,34.7378
357,2014/1/29,14:04:00,32-49.4900N,136-56.0900E,158,20.416,34.7372
358,2014/1/29,14:05:00,32-49.2800N,136-56.1900E,157,20.416,34.7355
359,2014/1/29,14:06:00,32-49.0600N,136-56.2900E,159,20.416,34.7348
360,2014/1/29,14:07:00,32-48.8300N,136-56.4300E,151,20.419,34.7342
361,2014/1/29,14:08:00,32-48.6300N,136-56.5700E,149,20.417,34.7342
362,2014/1/29,14:09:00,32-48.4200N,136-56.7200E,149,20.432,34.736
363,2014/1/29,14:10:00,32-48.2100N,136-56.8600E,149,20.443,34.7383
364,2014/1/29,14:11:00,32-48.0000N,136-57.0100E,149,20.453,34.744
365,2014/1/29,14:12:00,32-47.7900N,136-57.1600E,149,20.457,34.7489
366,2014/1/29,14:13:00,32-47.5700N,136-57.3100E,149,20.457,34.7519
367,2014/1/29,14:14:00,32-47.3600N,136-57.4600E,149,20.46,34.753
368,2014/1/29,14:15:00,32-47.1500N,136-57.6000E,149,20.455,34.7541
369,2014/1/29,14:16:00,32-46.9400N,136-57.7500E,149,20.457,34.7546
370,2014/1/29,14:17:00,32-46.7300N,136-57.8900E,152,20.459,34.7543
371,2014/1/29,14:18:00,32-46.5000N,136-58.0100E,157,20.456,34.7546
372,2014/1/29,14:19:00,32-46.2800N,136-58.1100E,161,20.459,34.755
373,2014/1/29,14:20:00,32-46.0500N,136-58.1900E,164,20.458,34.7548
374,2014/1/29,14:21:00,32-45.8300N,136-58.2600E,167,20.461,34.7567
375,2014/1/29,14:22:00,32-45.6000N,136-58.3100E,169,20.466,34.7582